Hourly Data Report for August 19, 2020

LYTTON RCS
BRITISH COLUMBIA
Current Station Operator: ECCC - MSC

50°13'28.000" N
121°34'55.000" W
225.00 m
1114746
71765
VLY

Download Data

Hourly Data (August 2020)
Hourly Data Report for August 19, 2020
TIME Temp Definition
°C
Dew Point Definition
°C
Rel Hum Definition
%
Wind Dir Definition
10's deg

Wind Spd Definition
km/h
Visibility Definition
km
Stn Press Definition
kPa
Hmdx Definition


Wind Chill Definition


Weather Definition


00:00 22.5 11.6 50 18 24   98.69 25   LegendNANA
01:00 21.3 12.0 55 17 35   98.65     LegendNANA
02:00 20.6 12.2 58 18 32   98.63     LegendNANA
03:00 19.8 12.1 61 19 26   98.65     LegendNANA
04:00 18.9 12.4 66 18 22   98.72     LegendNANA
05:00 18.2 12.2 68 17 14   98.77     LegendNANA
06:00 18.1 12.2 69 16 21   98.81     LegendNANA
07:00 18.6 12.2 66 16 19   98.77     LegendNANA
08:00 20.9 12.2 57 19 19   98.73     LegendNANA
09:00 23.3 11.7 48 18 39   98.63 25   LegendNANA
10:00 24.5 11.2 43 18 31   98.55 26   LegendNANA
11:00 26.4 10.9 38 19 26   98.47 28   LegendNANA
12:00 28.4 9.4 30 19 26   98.33 29   LegendNANA
13:00 28.9 6.2 24 18 28   98.29 29   LegendNANA
14:00 29.8 4.9 21 18 32   98.23 29   LegendNANA
15:00 30.8 3.7 18 18 37   98.16 30   LegendNANA
16:00 30.9 5.2 20 18 40   98.11 30   LegendNANA
17:00 29.3 6.0 23 18 22   98.12 29   LegendNANA
18:00 27.8 6.7 26 18 30   98.11 28   LegendNANA
19:00 26.8 6.8 28 18 21   98.15 27   LegendNANA
20:00 26.0 6.5 29 20 13   98.17 26   LegendNANA
21:00 25.8 6.4 29 21 12   98.15 26   LegendNANA
22:00 25.0 5.9 29 21 16   98.15 25   LegendNANA
23:00 24.5 7.0 33 20 19   98.14 25   LegendNANA

Notes on Data Quality.

Legend

  • E = Estimated
  • M = Missing
  • NA = Not Available*
  • [empty] = Indicates an unobserved value
Date modified: